Regional Weather Roundup
Issued by NWS

Home | Current Version | Previous Version | Graphics & Text | Print | Product List | Glossary On
Versions: 1 2 3 4 5 6 7 8 9 10 11 12 13 14 15 16 17 18 19 20 21 22 23 24 25 26 27 28 29 30 31 32 33 34 35 36 37 38 39 40 41 42 43 44 45 46 47 48 49 50
516
ASUS44 KMEG 281810
RWRTN
TENNESSEE HOURLY STATE WEATHER ROUNDUP
NATIONAL WEATHER SERVICE MEMPHIS TN
100 PM CDT FRI APR 28 2017

TNZ002-004-019-021-049-052-054-088>092-281900-
WEST TENNESSEE

CITY           SKY/WX    TMP DP  RH WIND       PRES   REMARKS
MEMPHIS INTL   CLOUDY    76  70  82 S15G23    29.80S
NWS MEMPHIS      N/A     75 N/A N/A MISG        N/A
JACKSON        CLOUDY    72  67  84 S10       29.83F
DYERSBURG      CLOUDY    74  66  76 SE13G20   29.80F
SOMERVILLE     CLOUDY    75  68  78 S8G17     29.81S
UNION CITY     PTSUNNY   75  66  73 S15       29.79F
BOLIVAR        CLOUDY    75  68  78 SE13G20   29.82F
PARIS          CLOUDY    70  64  83 S14       29.85F
HUNTINGDON     CLOUDY    70  66  88 S10       29.84F
LEXINGTON      CLOUDY    73  68  83 S6G13     29.86F
SAVANNAH       PTSUNNY   77  70  78 S14       29.86F
$$

TNZ008-025-027-028-033-062-065-066-281900-
NORTH MIDDLE TENNESSEE

CITY           SKY/WX    TMP DP  RH WIND       PRES   REMARKS
NASHVILLE      CLOUDY    78  65  63 S22G29    29.92F
PORTLAND       CLOUDY    77  64  65 S18       29.91F
CLARKSVILLE    CLOUDY    75  64  68 S16       29.88F
SMYRNA         CLOUDY    79  67  66 S12G20    29.93F
COOKEVILLE     MOSUNNY   81  63  54 SW16      29.95F
GALLATIN       PTSUNNY   79  64  61 VRB7      29.95S
CROSSVILLE     PTSUNNY   71  61  70 S8G20     30.02F
$$

TNZ061-075-076-078-094-096-097-281900-
SOUTH MIDDLE TENNESSEE

CITY           SKY/WX    TMP DP  RH WIND       PRES   REMARKS
FAYETTEVILLE   PTSUNNY   79  68  69 S14G23    29.95F
TULLAHOMA      CLOUDY    75  64  69 S12       29.97F
WINCHESTER     CLOUDY    75  66  73 S12       29.97F
MCMINNVILLE    MOSUNNY   79  64  61 S10       29.98S
COLUMBIA       CLOUDY    77  77 100 S10       29.90S
SHELBYVILLE    CLOUDY    77  70  78 S12       29.95F
$$

TNZ017-018-042-046-047-281900-
NORTHEAST TENNESSEE

CITY           SKY/WX    TMP DP  RH WIND       PRES   REMARKS
TRI CITIES     MOSUNNY   81  54  39 CALM      30.01F
ELIZABETHTON   SUNNY     84  50  30 CALM      29.99F
$$

TNZ012-013-036-069-073-074-281900-
CENTRAL EAST TENNESSEE

CITY           SKY/WX    TMP DP  RH WIND       PRES   REMARKS
KNOXVILLE      PTSUNNY   80  63  55 W8        29.98F
OAK RIDGE      PTSUNNY   79  61  53 VRB7      30.00F
DOWNTOWN KNOXV SUNNY     81  64  57 VRB5G14   29.99S
GATLINBURG     SUNNY     81  61  50 VRB6      29.98S
MORRISTOWN     SUNNY     79  61  53 VRB7      30.00F
JACKSBORO      MOSUNNY   79  63  57 S7        30.02F
$$

TNZ083-085-099-281900-
SOUTHEAST TENNESSEE

CITY           SKY/WX    TMP DP  RH WIND       PRES   REMARKS
CHATTANOOGA    PTSUNNY   77  66  68 S7        30.00F
$$

SKY/WX REPORTED AS FAIR MEANS FEW OR NO CLOUDS BELOW
12 THOUSAND FEET.





USA.gov is the U.S. government's official web portal to all federal, state and local government web resources and services.